This is the latest recevied weather packets stored in our database for station/object OK0EK-11. If no packets are shown the sender has not sent any weather packets the latest 10 day(s).
| Time | Temp. | Humidity | Pressure | Rain* | Wind** | Luminosity | Snow |
|---|---|---|---|---|---|---|---|
| 1787863343 | 17.22° C | 60% | 1021.1 hPa | - | - | - | - |
| 1787862743 | 17.78° C | 59% | 1021 hPa | - | - | - | - |
| 1787862144 | 17.78° C | 59% | 1021 hPa | - | - | - | - |
| 1787861543 | 17.78° C | 60% | 1020.9 hPa | - | - | - | - |
| 1787860943 | 17.78° C | 60% | 1021 hPa | - | - | - | - |
| 1787860343 | 17.78° C | 60% | 1021.1 hPa | - | - | - | - |
| 1787859744 | 17.78° C | 60% | 1021.1 hPa | - | - | - | - |
| 1787859144 | 17.22° C | 62% | 1021.1 hPa | - | - | - | - |
| 1787858544 | 17.22° C | 61% | 1021.1 hPa | - | - | - | - |
| 1787857944 | 17.78° C | 60% | 1021 hPa | - | - | - | - |
| 1787857345 | 17.78° C | 61% | 1021.2 hPa | - | - | - | - |
| 1787856745 | 16.67° C | 63% | 1021 hPa | - | - | - | - |
| 1787856145 | 16.67° C | 62% | 1021.2 hPa | - | - | - | - |
| 1787855545 | 16.67° C | 63% | 1021.2 hPa | - | - | - | - |
| 1787854946 | 16.67° C | 63% | 1021.2 hPa | - | - | - | - |
| 1787854346 | 16.67° C | 63% | 1021.2 hPa | - | - | - | - |
| 1787853746 | 17.22° C | 62% | 1021.1 hPa | - | - | - | - |
| 1787853146 | 17.22° C | 62% | 1021.1 hPa | - | - | - | - |
| 1787852547 | 17.22° C | 61% | 1020.9 hPa | - | - | - | - |
| 1787851947 | 17.78° C | 61% | 1020.9 hPa | - | - | - | - |
| 1787851347 | 17.78° C | 61% | 1021.1 hPa | - | - | - | - |
| 1787850746 | 17.78° C | 60% | 1020.8 hPa | - | - | - | - |
| 1787850147 | 18.33° C | 59% | 1020.9 hPa | - | - | - | - |
| 1787849547 | 18.89° C | 58% | 1020.8 hPa | - | - | - | - |
| 1787848947 | 19.44° C | 56% | 1020.9 hPa | - | - | - | - |
* Rain since midnight (hover to see other rain measurements)
** Current wind speed in m/s (hover to see current wind gust speed)